Flag Weather past 2 weeks in Sevilla, Spain

Now
84 °F

Passing clouds.


Feels Like: 82 °F
Forecast: 54 / 79 °F
Wind: 9 mph from East

Location: Sevilla / San Pablo

Current Time: Oct 30, 2014 at 2:50:02 PM

Latest Report: Oct 30, 2014 at 2:30 PM


Visibility: N/A

Pressure: 30.04 "Hg

Humidity: 25%

Dew point: 45 °F

Location of SevillaLocation

Historic Weather in Sevilla — Graph

°F

Sevilla temperature yesterday

Maximum temperature yesterday: 81 °F (at 3:00 PM)
Minimum temperature yesterday: 59 °F (at 4:00 AM)
Average temperature yesterday: 69 °F

Past Weeks' High & Low Weather Summary

 TemperatureHumidityPressure
High88 °F (Oct 19, 5:00 PM)100% (Oct 15, 2:00 PM)30.27 "Hg (Oct 15, 2:00 PM)
Low54 °F (Oct 27, 6:00 AM)17% (Oct 23, 3:30 PM)29.86 "Hg (Oct 28, 4:00 PM)
Average71 °F62%30.05 "Hg
* Reported Oct 15 2:00 PM — Oct 30 1:30 PM, Sevilla, Weather by CustomWeather, © 2014

Note: Actual official high and low records may vary slightly from our data, if they occured in-between our weather recording intervals... More about our weather records

Advertising

Sevilla weather history for previous 24 hours

 ConditionsComfort  
Time TempWeatherWind HumidityBarometerVisibility
1:30 PM
Oct 30
82 °FPassing clouds.10 mph26%30.07 "HgN/A
1:00 PM81 °FPassing clouds.12 mph30%30.07 "HgN/A
12:30 PM81 °FPassing clouds.12 mph30%30.09 "HgN/A
12:00 PM79 °FPassing clouds.13 mph34%30.09 "HgN/A
11:30 AM77 °FSunny.12 mph36%30.09 "Hg10 mi
11:00 AM75 °FSunny.12 mph44%30.09 "Hg10 mi
10:30 AM72 °FSunny.7 mph57%30.09 "Hg10 mi
10:00 AM66 °FSunny.6 mph68%30.09 "Hg10 mi
9:30 AM64 °FSunny.7 mph78%30.09 "Hg10 mi
9:00 AM63 °FPassing clouds.3 mph77%30.09 "HgN/A
8:30 AM63 °FPassing clouds.7 mph77%30.07 "HgN/A
8:00 AM63 °FSunny.12 mph77%30.07 "Hg10 mi
7:30 AM63 °FClear.10 mph77%30.07 "Hg10 mi
7:00 AM59 °FClear.2 mph88%30.04 "Hg10 mi
6:30 AM57 °FClear.1 mph94%30.04 "Hg10 mi
6:00 AM57 °FClear.1 mph94%30.04 "Hg10 mi
5:30 AM57 °FClear.3 mph94%30.04 "Hg10 mi
4:30 AM57 °FClear.2 mph88%30.04 "Hg10 mi
4:00 AM57 °FClear.2 mph88%30.04 "Hg10 mi
3:30 AM55 °FClear.No wind88%30.04 "Hg10 mi
1:00 AM61 °FClear.1 mph72%30.04 "Hg10 mi
12:30 AM61 °FClear.2 mph72%30.04 "Hg10 mi
12:00 AM63 °FClear.1 mph68%30.04 "Hg10 mi
11:30 PM
Oct 29
64 °FClear.No wind64%30.04 "Hg10 mi
11:00 PM64 °FClear.No wind68%30.04 "Hg10 mi
10:30 PM63 °FClear.2 mph73%30.01 "Hg10 mi
10:00 PM64 °FClear.3 mph68%30.01 "Hg10 mi
9:30 PM64 °FClear.5 mph68%30.01 "Hg10 mi
9:00 PM66 °FClear.3 mph73%29.98 "Hg10 mi
8:30 PM68 °FClear.7 mph69%29.98 "Hg10 mi
8:00 PM70 °FClear.5 mph64%29.98 "Hg6 mi
7:30 PM73 °FClear.2 mph53%29.98 "Hg4 mi
7:00 PM73 °FClear.3 mph53%29.95 "Hg5 mi
6:30 PM77 °FClear.3 mph47%29.95 "Hg10 mi
6:00 PM79 °FSunny.5 mph42%29.95 "Hg10 mi
5:30 PM81 °FSunny.7 mph42%29.95 "Hg10 mi
5:00 PM81 °FSunny.7 mph37%29.95 "Hg10 mi
4:30 PM81 °FPassing clouds.6 mph39%29.95 "HgN/A
4:00 PM81 °FSunny.2 mph39%29.95 "Hg10 mi
3:30 PM81 °FPassing clouds.5 mph39%29.95 "HgN/A
3:00 PM81 °FPassing clouds.3 mph37%29.95 "HgN/A
2:30 PM79 °FPassing clouds.3 mph39%29.95 "HgN/A
2:00 PM79 °FSunny.2 mph45%29.95 "Hg10 mi
Weather by CustomWeather, © 2014

See weather overviewHow to use our weather pages